VHAGEDORN Weather Reports


time (UTC)temp
C
wind
direction
speed
KPH
gust
KPH
rain 1hr
cm
rain 24hr
cm
rain mn
cm
humidity
%
barometer
mb
20260504033037 10 165 0.0 3.2 0.00 0.00 0.00 71 1006.7
20260504031558 10 86 0.0 3.2 0.00 0.00 0.00 69 1006.8
20260504030013 11 355 0.0 1.6 0.00 0.00 0.00 66 1006.8
20260504024533 12 355 0.0 1.6 0.00 0.00 0.00 63 1006.7
20260504023015 13 355 0.0 0.0 0.00 0.00 0.00 60 1006.7
20260504021531 13 351 0.0 1.6 0.00 0.00 0.00 57 1006.6
20260504020051 14 351 0.0 0.0 0.00 0.00 0.00 54 1006.6
20260504014533 15 351 0.0 0.0 0.00 0.00 0.00 51 1006.7
20260504013103 15 351 0.0 3.2 0.00 0.00 0.00 50 1007.0
20260504011539 15 348 1.6 3.2 0.00 0.00 0.00 50 1007.1
20260504010033 15 350 1.6 8.0 0.00 0.00 0.00 49 1007.2
20260504004521 16 288 3.2 11.3 0.00 0.00 0.00 49 1007.4
20260504003056 16 351 1.6 6.4 0.00 0.00 0.00 49 1007.6
20260504001545 16 5 1.6 6.4 0.00 0.00 0.00 49 1007.7
20260504000032 16 15 4.8 12.9 0.00 0.00 0.00 47 1007.9
20260503234506 16 345 4.8 9.7 0.00 0.00 0.00 47 1007.9
20260503233004 17 38 1.6 12.9 0.00 0.00 0.00 49 1008.2
20260503231600 16 196 1.6 14.5 0.00 0.00 0.00 51 1007.9
20260503231509 16 196 1.6 14.5 0.00 0.00 0.00 51 1007.9
20260503230004 15 360 4.8 14.5 0.00 0.00 0.00 44 1007.6
20260503224552 15 50 9.7 30.6 0.00 0.00 0.00 51 1008.8